1315180828447,0.823252
1315180888447,0.826471
1315180948447,0.839696
1315181008447,0.843124
1315181068447,0.845102
1315181128447,0.849533
1315181188447,0.854882
1315181248447,0.857641
1315181308447,0.861225
1315181368447,0.870766
1315181428447,0.867126
1315181488447,0.873153
1315181548447,0.872873
1315181608447,0.874615
1315181668447,0.882899
1315181728447,0.875943
1315181788447,0.882075
1315181848447,0.878024
1315181908447,0.888375
1315181968447,0.889011
1315182028447,0.894940
1315182088447,0.901480
1315182148447,0.908332
1315182208447,0.908259
1315182268447,0.912932
1315182328447,0.926897
1315182388447,0.932058
1315182448447,0.939535
1315182508447,0.948814
1315182568447,0.942602
1315182628447,0.961406
1315182688447,0.967509
1315182748447,0.977946
1315182808447,0.980197
1315182868447,0.991394
1315182928447,0.994869
1315182988447,0.995651
1315183048447,1.00725
1315183108447,1.01993
1315183168447,1.02531
1315183228447,1.02923
1315183288447,1.03892
1315183348447,1.04213
1315183408447,1.06038
1315183468447,1.06519
1315183528447,1.06543
1315183588447,1.08469
1315183648447,1.07989
1315183708447,1.08454
1315183768447,1.07813
1315183828447,1.08770
1315183888447,1.09784
1315183948447,1.09320
1315184008447,1.08548
1315184068447,1.08084
1315184128447,1.08421
1315184188447,1.07944
1315184248447,1.07907
1315184308447,1.07800
1315184368447,1.07445
1315184428458,1.07383
1315184488458,1.06018
1315184548458,1.06014
1315184608458,1.05186
1315184668458,1.05479
1315184728458,1.04537
1315184788458,1.03446
1315184848458,1.03145
1315184908458,1.03686
1315184968458,1.01402
1315185028458,1.01313
1315185088458,1.02140
1315185628458,0.973114
1315185688458,0.972482
1315185748458,0.984108
1315185808458,0.979825
1315185868458,0.980560
1315185928458,0.978088
1315185988458,0.985495
1315186048458,0.986093
1315186108458,0.983657
1315186168458,0.987290
1315186228458,0.989460
1315186288458,0.982590
1315186348458,1.00175
1315186408458,0.992528
1315186468458,1.00957
1315186528458,1.00421
1315186588458,1.00256
1315186648457,0.992066
1315186708457,1.00860
1315186768457,1.01339
1315186828457,1.01396
1315186888457,1.01728
1315186948457,1.01884
1315187008458,1.02551
1315187068458,1.02952
1315187128458,1.02410
1315187188458,1.02311
1315187248458,1.02622
1315187308458,1.02851
1315187368458,1.03287
1315187428458,1.04191
1315187488458,1.04997
1315187548458,1.05211
1315187608458,1.05554
1315187668458,1.06410
1315187728458,1.06495
1315187788458,1.05983
1315187848458,1.07550
1315187908458,1.07043
1315187968457,1.05664
1315188028468,1.07001
1315188088468,1.06588
1315188148468,1.05741
1315188208468,1.06365
1315188268468,1.07250
1315188328468,1.06194
1315188388468,1.06510
1315188448468,1.05956
1315188508468,1.06881
1315188568468,1.05689
1315188628468,1.06527
1315188688468,1.05901
1315188748468,1.06317
1315188808468,1.05564
1315188868468,1.06632
1315188928468,1.06283
1315188988468,1.05987
1315189048468,1.06539
1315189108468,1.05568
1315189168468,1.06435
1315189228468,1.05950
1315189288468,1.05364
1315189348468,1.06816
1315189408468,1.05405
1315189468468,1.05676
1315189528468,1.05303
1315189588468,1.04577
1315189648468,1.03879
1315189708468,1.05171
1315189768468,1.03612
1315189828468,1.04458
1315189888468,1.04420
1315189948468,1.05073
1315190008468,1.03834
1315190068468,1.03463
1315190128468,1.03898
1315190188468,1.03073
1315190248468,1.03189
1315190308468,1.02626
1315190368468,1.02099
1315190428468,1.02965
1315190488468,1.01690
1315190548468,1.01853
1315190608468,1.02149
1315190668468,1.02437
1315190728468,1.01684
1315190788468,1.01675
1315190848468,1.00888
1315190908468,1.01831
1315190968468,1.00786
1315191028468,1.00966
1315191088468,1.00279
1315191148468,1.00197
1315191208468,1.00265
1315191268468,1.00011
1315191328468,1.00261
1315191388468,1.00140
1315191448468,0.996164
1315191508468,0.994876
1315191568468,1.00665
1315191628477,0.994198
1315191688477,0.993903
1315191748477,0.986677
1315191808477,0.980781
1315191868477,0.986322
1315191928478,0.984056
1315191988477,0.984885
1315192048477,0.987540
1315192108477,0.980210
1315192168477,0.979425
1315192228477,0.969709
1315192288478,0.979181
1315192348478,0.982330
1315192408478,0.973015
1315192468478,0.974706
1315192528478,0.970710
1315192588478,0.975535
1315192648477,0.973077
1315192708477,0.976040
1315192768477,0.979006
1315192828477,0.978697
1315192888477,0.973152
1315192948477,0.969027
1315193008477,0.975108
1315193068477,0.973271
1315193128477,0.975617
1315193188477,0.971662
1315193248477,0.972379
1315193308477,0.982435
1315193368477,0.981635
1315193428477,0.976980
1315193488477,0.969624
1315193548477,0.973009
1315193608478,0.978340
1315193668478,0.978518
1315193728478,0.980210
1315193788478,0.967839
1315193848478,0.972574
1315193908478,0.970148
1315193968478,0.977540
1315194028477,0.983514
1315194088477,0.969773
1315194148477,0.978358
1315194208477,0.987131
1315194268477,0.972181
1315194328477,0.982025
1315194388477,0.972697
1315194448477,0.981068
1315194508477,0.967794
1315194568477,0.973252
1315194628478,0.974929
1315194688477,0.980664
1315194748477,0.985960
1315194808477,0.995957
1315194868477,0.990208
1315194928477,0.988508
1315194988478,0.995459
1315195048478,0.988605
1315195108478,0.992074
1315195168478,0.990311
1315195228487,0.993893
1315195288487,0.997973
1315195348487,0.999316
1315195408487,1.01483
1315195468487,1.01623
1315195528487,1.02186
1315195588487,1.02378
1315195648487,1.03229
1315195708487,1.02960
1315195768487,1.03861
1315195828487,1.04733
1315195888487,1.04124
1315195948487,1.04255
1315196008487,1.05521
1315196068487,1.07077
1315196128487,1.07494
1315196188487,1.10256
1315196248487,1.12995
1315196308487,1.13492
1315196368487,1.15028
1315196428487,1.16050
1315196488487,1.16853
1315196548487,1.18766
1315196608487,1.19621
1315196668487,1.21116
1315196728487,1.20744
1315196788487,1.20125
1315196848487,1.21394
1315196908487,1.21194
1315196968487,1.22464
1315197028487,1.21667
1315197088487,1.23710
1315197148487,1.22954
1315197208487,1.23242
1315197268487,1.23490
1315197328487,1.22292
1315197388487,1.22325
1315197448487,1.21038
1315197508487,1.19690
1315197568487,1.20131
1315197628487,1.19430
1315197688487,1.17368
1315197748487,1.17390
1315197808487,1.17730
1315197868487,1.16554
1315197928487,1.16528
1315197988487,1.16040
1315198048487,1.14558
1315198108487,1.14251
1315198168487,1.12511
1315198228487,1.12092
1315198288487,1.11916
1315198348487,1.11809
1315198408487,1.11072
1315198468487,1.10568
1315198528487,1.10174
1315198588487,1.10924
1315198648487,1.09891
1315198708487,1.10087
1315198768487,1.10148
1315198828497,1.10166
1315198888497,1.09335
1315198948497,1.09227
1315199008497,1.09075
1315199068497,1.08439
1315199128497,1.08250
1315199188497,1.07754
1315199248497,1.07004
1315199308497,1.08507
1315199368497,1.07646
1315199428497,1.06123
1315199488497,1.07176
1315199548497,1.06430
1315199608497,1.05502
1315199668497,1.05325
1315199728497,1.05372
1315199788497,1.05711
1315199848497,1.05259
1315199908497,1.04986
1315199968497,1.04745
1315200028497,1.03402
1315200088497,1.03285
1315200148497,1.03147
1315200208497,1.03683
1315200268497,1.03142
1315200328497,1.01929
1315200388497,1.02159
1315200448497,1.01578
1315200508497,1.01322
1315200568497,1.02457
1315200628497,1.00358
1315200688497,1.00331
1315200748497,1.00333
1315200808497,0.995265
1315200868497,0.997901
1315200928497,0.993484
1315200988497,0.985344
1315201048497,0.974002
1315201108497,0.988305
1315201168497,0.974822
1315201228497,0.970455
1315201288497,0.975751
1315201348497,0.965850
1315201408497,0.966434
1315201468497,0.960924
1315201528497,0.961049
1315201588497,0.958588
1315201648497,0.966063
1315201708497,0.959350
1315201768497,0.967300
1315201828497,0.958930
1315201888497,0.964058
1315201948497,0.961351
1315202008497,0.955807
1315202068497,0.950181
1315202128497,0.942703
1315202188497,0.949588
1315202248497,0.951012
1315202308497,0.944767
1315202368497,0.938931
1315202428507,0.945748
1315202488507,0.954864
1315202548507,0.942195
1315202608507,0.955436
1315202668507,0.959733
1315202728507,0.967642
1315202788507,0.957561
1315202848507,0.966084
1315202908507,0.956809
1315202968507,0.961007
1315203028507,0.945730
1315203088507,0.949103
1315203148507,0.948532
1315203208507,0.936504
1315203268507,0.935927
1315203328507,0.930133
1315203388507,0.923824
1315203448507,0.916380
1315203508507,0.925858
1315203568507,0.915416
1315203628507,0.923275
1315203688507,0.925426
1315203748507,0.912761
1315203808507,0.917857
1315203868507,0.921417
1315203928507,0.923744
1315203988507,0.912385
1315204048507,0.920510
1315204108507,0.918819
1315204168507,0.920281
1315204228507,0.922917
1315204288507,0.926542
1315204348507,0.922814
1315204408507,0.919698
1315204468507,0.923656
1315204528507,0.916880
1315204588507,0.929801
1315204648507,0.919575
1315204708507,0.918709
1315204768507,0.913973
1315204828507,0.914289
1315204888507,0.912887
1315204948507,0.914615
1315205008507,0.905454
1315205068507,0.905691
1315205128507,0.903492
1315205188507,0.902111
1315205248507,0.904160
1315205308507,0.903958
1315205368507,0.903077
1315205428507,0.898167
1315205488507,0.901869
1315205548507,0.897322
1315205608507,0.899022
1315205668507,0.887258
1315205728507,0.898620
1315205788507,0.889499
1315205848507,0.901796
1315205908507,0.902140
1315205968507,0.906291
1315206028517,0.900501
1315206088517,0.904703
1315206148517,0.900811
1315206208517,0.896332
1315206268517,0.899345
1315206328517,0.895922
1315206388517,0.903776
1315206448517,0.891416
1315206508517,0.898595
1315206568517,0.892300
1315206628517,0.894700
1315206688517,0.884907
1315206748517,0.892109
1315206808517,0.890036
1315206868517,0.894996
1315206928517,0.891987
1315206988517,0.898102
1315207048517,0.892622
1315207108517,0.902197
1315207168517,0.906838
1315207228517,0.899854
1315207288517,0.904703
1315207348517,0.910813
1315207408517,0.896097
1315207468517,0.902236
1315207528517,0.895301
1315207588517,0.905440
1315207648517,0.907298
1315207708517,0.892411
1315207768517,0.890488
1315207828517,0.898451
1315207888517,0.906259
1315207948517,0.900362
1315208008517,0.891580
1315208068517,0.898524
1315208128517,0.903516
1315208188517,0.915941
1315208248517,0.908784
1315208308517,0.919173
1315208368517,0.918652
1315208428517,0.922321
1315208488517,0.925667
1315208548517,0.921194
1315208608517,0.919338
1315208668517,0.921278
1315208728517,0.914376
1315208788517,0.924073
1315208848517,0.922794
1315208908517,0.928270
1315208968517,0.925874
1315209028517,0.934022
1315209088517,0.981767
1315209148517,0.950384
1315209208517,0.951468
1315209268517,0.949907
1315209328517,0.946757
1315209388517,0.949363
1315209448517,0.949308
1315209508517,0.949103
1315209568517,0.955769
1315209628527,0.955392
1315209688527,0.975975
1315209748527,0.976605
1315209808527,0.997125
1315209868527,1.00464
1315209928527,1.01558
1315209988527,1.00535
1315210048527,1.02478
1315210108527,1.03202
1315210168527,1.02772
1315210228527,1.02271
1315210288527,1.02812
1315210348527,1.02157
1315210408527,1.02728
1315210468527,1.02630
1315210528527,1.02272
1315210588527,1.03175
1315210648527,1.01655
1315210708527,1.02394
1315210768527,1.00986
1315210828527,1.01995
1315210888527,1.01970
1315210948527,1.01304
1315211008527,1.01202
1315211068527,1.00070
1315211128527,0.991185
1315211188527,0.998151
1315211248527,0.991725
1315211308527,0.978976
1315211368527,0.976840
1315211428527,0.979069
1315211488527,0.973806
1315211548527,0.964055
1315211608527,0.966253
1315211668527,0.962013
1315211728527,0.958973
1315211788527,0.951829
1315211848527,0.950243
1315211908527,0.951358
1315211968527,0.941608
1315212028527,0.944863
1315212088527,0.933698
1315212148527,0.928415
1315212208527,0.922978
1315212268527,0.925462
1315212328527,0.934052
1315212388527,0.921892
1315212448527,0.924567
1315212508527,0.922964
1315212568527,0.919079
1315212628527,0.921735
1315212688527,0.924589
1315212748527,0.914261
1315212808527,0.909783
1315212868527,0.916237
1315212928527,0.916001
1315212988527,0.916445
1315213048527,0.908623
1315213108527,0.905941
1315213168527,0.911826
1315213228537,0.899256
1315213288537,0.896357
1315213348537,0.891336
1315213408537,0.890033
1315213468537,0.894081
1315213528537,0.898740
1315213588537,0.883566
1315213648537,0.883090
1315213708537,0.880893
1315213768537,0.884310
1315213828537,0.877131
1315213888537,0.881662
1315213948537,0.876963
1315214008537,0.873983
1315214068537,0.879564
1315214128537,0.869258
1315214188537,0.875496
1315214248537,0.869404
1315214308537,0.881348
1315214368537,0.860389
1315214428537,0.868160
1315214488537,0.870692
1315214548537,0.874361
1315214608537,0.866423
1315214668537,0.876868
1315214728537,0.872535
1315214788537,0.882091
1315214848537,0.870990
1315214908537,0.873964
1315214968537,0.871666
1315215028537,0.879919
1315215088537,0.870899
1315215148537,0.867007
1315215208537,0.873099
1315215268537,0.873251
1315215328537,0.868202
1315215388537,0.869686
1315215448537,0.865426
1315215508537,0.870838
1315215568537,0.865166
1315215628537,0.865010
1315215688537,0.858947
1315215748537,0.857843
1315215808537,0.854945
1315215868537,0.858069
1315215928537,0.849237
1315215988537,0.854828
1315216048537,0.849512
1315216108537,0.852954
1315216168537,0.852927
1315216228537,0.847659
1315216288537,0.849706
1315216348537,0.845531
1315216408537,0.844913
1315216468537,0.847112
1315216528537,0.840327
1315216588537,0.838560
1315216648537,0.845139
1315216708537,0.838531
1315216768537,0.839001
1315216828548,0.839680
1315216888548,0.845312
1315216948548,0.846846
1315217008548,0.845658
1315217068548,0.858038
1315217128548,0.846162
1315217188548,0.837996
1315217248548,0.839362
1315217308548,0.847461
1315217368548,0.835810
1315217428548,0.842371
1315217488548,0.843606
1315217548548,0.846161
1315217608548,0.853117
1315217668548,0.837422
1315217728548,0.839719
1315217788548,0.847826
1315217848548,0.839551
1315217908548,0.845001
1315217968548,0.835821
1315218028548,0.836173
1315218088548,0.835660
1315218148548,0.839251
1315218208548,0.832669
1315218268548,0.836582
1315218328548,0.831548
1315218388548,0.843785
1315218448548,0.837500
1315218508548,0.835276
1315218568548,0.841074
1315218628548,0.842819
1315218688548,0.838337
1315218748548,0.840528
1315218808548,0.845864
1315218868548,0.842588
1315218928548,0.839595
1315218988548,0.841215
1315219048548,0.846080
1315219108548,0.842601
1315219168548,0.847367
1315219228548,0.853409
1315219288548,0.839728
1315219348548,0.845815
1315219408548,0.848666
1315219468548,0.846501
1315219528548,0.846094
1315219588548,0.852287
1315219648548,0.843487
1315219708548,0.843159
1315219768548,0.842252
1315219828548,0.844070
1315219888548,0.845624
1315219948548,0.845982
1315220008548,0.843185
1315220068548,0.847719
1315220128548,0.843608
1315220188548,0.838145
1315220248548,0.848541
1315220308548,0.856978
1315220368548,0.851022
1315220428558,0.847071
1315220488558,0.858293
1315220548558,0.855772
1315220608558,0.860949
1315220668558,0.856765
1315220728558,0.866519
1315220788558,0.862323
1315220848558,0.852104
1315220908558,0.859554
1315220968558,0.868225
1315221028558,0.853958
1315221088558,0.859724
1315221148558,0.855911
1315221208558,0.855170
1315221268558,0.857507
1315221328558,0.860242
1315221388558,0.863231
1315221448558,0.862913
1315221508558,0.868477
1315221568558,0.861770
1315221628558,0.860081
1315221688558,0.868202
1315221748558,0.861250
1315221808558,0.867140
1315221868558,0.875671
1315221928558,0.878389
1315221988558,0.890703
1315222048558,0.884005
1315222108558,0.887557
1315222168558,0.891222
1315222228558,0.900005
1315222288558,0.894299
1315222348558,0.906904
1315222408558,0.899681
1315222468558,0.909511
1315222528558,0.920716
1315222588558,0.918739
1315222648558,0.918828
1315222708558,0.934154
1315222768558,0.934337
1315222828558,0.934853
1315222888558,0.933292
1315222948558,0.919851
1315223008558,0.937494
1315223068558,0.938306
1315223128558,0.934133
1315223188558,0.935226
1315223248558,0.927698
1315223308558,0.926121
1315223368558,0.918486
1315223428558,0.920546
1315223488558,0.928887
1315223548558,0.936394
1315223608558,0.919902
1315223668558,0.924412
1315223728558,0.930301
1315223788558,0.922180
1315223848558,0.928414
1315223908558,0.922076
1315223968558,0.924199
1315224028568,0.934184
1315224088568,0.929810
1315224148568,0.931379
1315224208568,0.926746
1315224268568,0.930014
1315224328568,0.939721
1315224388568,0.930067
1315224448568,0.936532
1315224508568,0.926751
1315224568568,0.935210
1315224628568,0.928537
1315224688568,0.928742
1315224748568,0.924412
1315224808568,0.921590
1315224868568,0.931216
1315224928568,0.933700
1315224988568,0.927669
1315225048568,0.920422
1315225108568,0.915244
1315225168568,0.911500
1315225228568,0.914993
1315225288568,0.909208
1315225348568,0.905835
1315225408568,0.903149
1315225468568,0.903648
1315225528568,0.906404
1315225588568,0.902740
1315225648568,0.898864
1315225708568,0.899312
1315225768568,0.900826
1315225828568,0.899462
1315225888568,0.898205
1315225948568,0.903349
1315226008568,0.899825
1315226068568,0.895958
1315226128568,0.893125
1315226188568,0.899324
1315226248568,0.895924
1315226308568,0.904388
1315226368568,0.907880
1315226428568,0.905708
1315226488568,0.899449
1315226548568,0.905264
1315226608568,0.904835
1315226668568,0.900158
1315226728568,0.896347
1315226788568,0.897428
1315226848568,0.888368
1315226908568,0.888123
1315226968568,0.892116
1315227028568,0.892342
1315227088568,0.890545
1315227148568,0.891384
1315227208568,0.887358
1315227268568,0.888813
1315227328568,0.889956
1315227388568,0.891700
1315227448568,0.891491
1315227508568,0.887112
1315227568568,0.885885
1315227628579,0.889260
1315227688579,0.880677
1315227748579,0.887003
1315227808579,0.892579
1315227868579,0.881027
1315227928579,0.885727
1315227988579,0.881079
1315228048579,0.883375
1315228108579,0.890000
1315228168579,0.872894
1315228228579,0.887630
1315228288579,0.879815
1315228348579,0.880874
1315228408579,0.874878
1315228468579,0.863765
1315228528579,0.873582
1315228588579,0.872564
1315228648579,0.877550
1315228708579,0.867862
1315228768579,0.873524
1315228828579,0.870680
1315228888579,0.865289
1315228948579,0.869554
1315229008579,0.869449
1315229068579,0.869960
1315229128579,0.863782
1315229188579,0.869910
1315229248579,0.863539
1315229308579,0.864772
1315229368579,0.871067
1315229428579,0.869797
1315229488579,0.868831
1315229548579,0.862185
1315229608579,0.876250
1315229668579,0.872456
1315229728579,0.872548
1315229788579,0.874084
1315229848579,0.880759
1315229908579,0.881672
1315229968579,0.885390
1315230028579,0.887157
1315230088579,0.895913
1315230148579,0.887919
1315230208579,0.885431
1315230268579,0.889467
1315230328579,0.896922
1315230388579,0.906287
1315230448579,0.901400
1315230508579,0.906183
1315230568579,0.919563
1315230628579,0.911207
1315230688579,0.917284
1315230748579,0.914766
1315230808579,0.917260
1315230868579,0.917254
1315230928579,0.901839
1315230988579,0.916100
1315231048579,0.913028
1315231108579,0.899241
1315231168579,0.910617
1315231228590,0.907233
1315231288590,0.903685
1315231348590,0.897502
1315231408590,0.888404
1315231468590,0.899392
1315231528590,0.905171
1315231588590,0.899957
1315231648590,0.910984
1315231708590,0.913140
1315231768590,0.910949
1315231828590,0.919794
1315231888590,0.917501
1315231948590,0.906324
1315232008590,0.910573
1315232068590,0.907317
1315232128590,0.906526
1315232188590,0.905900
1315232248590,0.901556
1315232308590,0.897458
1315232368590,0.894255
1315232428590,0.891204
1315232488590,0.894012
1315232548590,0.889762
1315232608590,0.884719
1315232668590,0.886201
1315232728590,0.883564
1315232788590,0.878066
1315232848590,0.877580
1315232908590,0.887371
1315232968590,0.871447
1315233028590,0.874613
1315233088590,0.879936
1315233148590,0.873885
1315233208590,0.879527
1315233268590,0.873618
1315233328590,0.876733
1315233388590,0.873441
1315233448590,0.882399
1315233508590,0.879817
1315233568590,0.875742
1315233628590,0.878265
1315233688590,0.868066
1315233748590,0.876257
1315233808590,0.865358
1315233868590,0.879855
1315233928590,0.862025
1315233988590,0.865535
1315234048590,0.859482
1315234108590,0.865426
1315234168590,0.863270
1315234228590,0.866384
1315234288590,0.862645
1315234348590,0.860090
1315234408590,0.865191
1315234468590,0.863714
1315234528590,0.860590
1315234588590,0.863020
1315234648590,0.860443
1315234708590,0.866682
1315234768590,0.860620
1315234828601,0.861452
1315234888601,0.861403
1315234948601,0.857269
1315235008601,0.864617
1315235068601,0.858583
1315235128601,0.858485
1315235188601,0.861607
1315235248601,0.860294
1315235308601,0.859282
1315235368601,0.858909
1315235428601,0.864932
1315235488601,0.858481
1315235548601,0.868063
1315235608601,0.853439
1315235668601,0.846908
1315235728601,0.863758
1315235788601,0.856697
1315235848601,0.855409
1315235908601,0.857124
1315235968601,0.853403
1315236028601,0.861646
1315236088601,0.864729
1315236148601,0.861673
1315236208601,0.853895
1315236268601,0.854363
1315236328601,0.853045
1315236388601,0.859703
1315236448601,0.860119
1315236508601,0.857092
1315236568601,0.858024
1315236628601,0.858360
1315236688601,0.861025
1315236748601,0.870012
1315236808601,0.859436
1315236868601,0.865230
1315236928601,0.858514
1315236988601,0.870454
1315237048601,0.864944
1315237108601,0.860706
1315237168601,0.862893
1315237228601,0.860171
1315237288601,0.866448
1315237348601,0.864850
1315237408601,0.870991
1315237468601,0.859923
1315237528601,0.872148
1315237588601,0.873766
1315237648601,0.880366
1315237708601,0.873248
1315237768601,0.878442
1315237828601,0.878012
1315237888601,0.882621
1315237948601,0.876895
1315238008601,0.882278
1315238068601,0.881443
1315238128601,0.882632
1315238188601,0.868036
1315238248601,0.873324
1315238308601,0.868423
1315238368601,0.870203
1315238428613,0.862567
1315238488613,0.869081
1315238548613,0.858910
1315238608613,0.860959
1315238668613,0.863107
1315238728613,0.853645
1315238788613,0.857717
1315238848613,0.847150
1315238908612,0.851119
1315238968612,0.854338
1315239028612,0.860314
1315239088612,0.856706
1315239148612,0.856303
1315239208612,0.846679
1315239268612,0.849351
1315239328613,0.855616
1315239388613,0.856254
1315239448613,0.844386
1315239508613,0.846370
1315239568613,0.844788
1315239628612,0.843288
1315239688613,0.849564
1315239748613,0.839540
1315239808613,0.849025
1315239868613,0.838512
1315239928613,0.846903
1315239988613,0.842969
1315240048613,0.842173
1315240108613,0.841064
1315240168613,0.846910
1315240228613,0.846425
1315240288612,0.845594
1315240348612,0.846910
1315240408612,0.843048
1315240468612,0.854279
1315240528612,0.844636
1315240588612,0.844280
1315240648612,0.847083
1315240708613,0.849192
1315240768613,0.846660
1315240828613,0.840156
1315240888613,0.852406
1315240948612,0.843859
1315241008613,0.843710
1315241068613,0.849894
1315241128613,0.841304
1315241188613,0.845733
1315241248613,0.848340
1315241308613,0.845194
1315241368613,0.842963
1315241428613,0.849543
1315241488613,0.843759
1315241548613,0.844611
1315241608612,0.844251
1315241668612,0.847447
1315241728612,0.842511
1315241788612,0.842527
1315241848612,0.842173
1315241908612,0.840918
1315241968612,0.847195
1315242028624,0.845814
1315242088624,0.853486
1315242148624,0.849003
1315242208624,0.846646
1315242268624,0.857685
1315242328624,0.861425
1315242388624,0.862513
1315242448624,0.861822
1315242508624,0.857477
1315242568624,0.853410
1315242628624,0.857201
1315242688624,0.849937
1315242748624,0.849749
1315242808624,0.846377
1315242868624,0.840113
1315242928624,0.846486
1315242988624,0.844705
1315243048624,0.846850
1315243108624,0.840990
1315243168624,0.843536
1315243228624,0.839905
1315243288624,0.841762
1315243348624,0.832510
1315243408624,0.843619
1315243468624,0.844804
1315243528624,0.836703
1315243588624,0.834751
1315243648624,0.843624
1315243708624,0.833189
1315243768624,0.836001
1315243828624,0.842806
1315243888624,0.832936
1315243948624,0.831620
1315244008624,0.828150
1315244068624,0.834474
1315244128624,0.831689
1315244188624,0.834867
1315244248624,0.835337
1315244308624,0.834547
1315244368624,0.830034
1315244428624,0.826574